FENGYUN 1C DEB

Satellite information

Favourite Embed

Satellite Type and Status

DEBRISIN ORBIT

Key statistics

Satellite FENGYUN 1C DEB at a glance.

Uptime

9663

Days in orbit

Revolutions

≈ 14.7

Per day

Orbit

SSO

Sun Synchronous Orbit

Inclination

102.6

Latest

Satellite identification and parameters

Extended collection of information and parameters for FENGYUN 1C DEB.

Object identification

Identified? True

Debris? True

Object name: FENGYUN 1C DEB

International designator: 1999-025ZB

Object number (NORAD): 30290

Object ID (CCSDS): 30290

Country: PEOPLES REPUBLIC OF CHINA (PRC)

Current information (Y/N): Y

RCS size: SMALL

Orbital parameters

Period: 97.945 minutes

Inclination: 102.6263 deg

SMA: 7038.539 km

Apoapsis: 677.803 km

Periapsis: 643.004 km

RAAN: 7.6817 deg

Eccentricy: 0.00247205

Argument of periapsis: 199.0892 deg

Mean anomaly: 219.7877 deg

Mean motion: 14.70208719 rev/day

Mean motion (dot): 0.00042417 rev/day2

B* drag term: 0.0069746542 1/REarth

Two-line elements (TLE)

Creation date: Oct. 21, 2025, 6:24 p.m.

Reference frame: TEME

Reference center: EARTH

Epoch: Oct. 21, 2025, 10:33 a.m. UTC

TLE line 0: 0 FENGYUN 1C DEB

TLE line 1: 1 30290U 99025ZB 25294.43982934 .00042417 00000-0 69747-2 0 9996

TLE line 2: 2 30290 102.6263 7.6817 0024721 199.0892 219.7877 14.70208719971095

Live tracking on map

Real-time ground track for satellite FENGYUN 1C DEB.

In-orbit conjunctions

A list of the most updated potential collisions computed for object FENGYUN 1C DEB.

Target Orbit TCA Probability of collision Miss distance Type
FENGYUN 1C DEB SSO 2024-11-14 02:15:23 0.000472623 138.0 (m) DEBRIS
CZ-6A DEB LEO 2024-10-24 02:08:16 0.0001425896 254.0 (m) DEBRIS
OXP 1 LEO 2024-08-27 10:59:30 0.0001107636 18.0 (m) PAYLOAD

Associated space launch

Chinese polar orbiting meteorological satellite

FENGYUN 1C DEB was lifted into orbit during the mission ‘Long March 4B | Feng Yun 1C’, on board a Long March 4B space rocket.

The launch took place on May 10, 1999, 1:33 a.m. from Launch Complex 7.

For more information about the launch, click the button.

Launch to space Long March 4B | Feng Yun 1C
Long March 4B | Feng Yun 1C

Agency: N/A

Status: Launch Successful

Launch date: May 10, 1999, 1:33 a.m. UTC

Rocket: Long March 4B

Launch pad: Launch Complex 7

Location: Taiyuan Satellite Launch Center, People's Republic of China

...

Latest news about this satellite

There are no fresh news available about this satellite. Check back as we update our databases every day.


Newsletter sign-up

Weekly statistics, charts and insights to help you stay on top of the space industry.